Вернуться в каталог

THORAD AGENA D DEB

АктивенLEO
NORAD 4149·DEBRIS·🇺🇸 United States

Запущен Sep 30, 1969 с Vandenberg Space Force Base

Loading…

Ближайшие Пролёты (ближайшие 24 часа)

TLE

СвежийSource: Space-Track

Эпоха: Sep 14, 2026, 14:03 UTC

1 04149U 69082T   26257.58565697  .00000145  00000-0  92975-4 0  9992
2 04149  70.3032 104.6848 0038320 294.4117  65.3007 14.19955974931255

Отслеживайте THORAD AGENA D DEB в реальном времени с AllMySat

Download on the App Store